Tracking 17557 objects as of 8-February-2016
HD Live streaming from Space Station
objects crossing your sky now

FENGYUN 2B AKM

Track FENGYUN 2B AKM now!


NORAD ID: 26460
Int'l Code: 2000-032C
Perigee: 35,718.4 km
Apogee: 35,914.8 km
Inclination: 11.8 °
Period: 1,437.3 minutes
Semi major axis: 42187 km
RCS: 7.9432 m2 (large)
Launch date: June 25, 2000
Source: People's Republic of China (PRC)
Launch site: Xichang Space Center, China (XSC)

Note: This is a ROCKET BODY
Your satellite tracking list
Your tracking list is empty





NASA's NSSDC Master Catalog

Two Line Element Set (TLE):
1 26460U 00032C   16031.87008966 -.00000302 +00000-0 +00000-0 0  9994
2 26460 011.8245 038.2815 0023282 294.3190 251.7584 01.0019022684222
Source of the keplerian elements: AFSPC

N2YO: 590